Location: Fluertsh�userhof
(48.7537°N, 10.3850°E)
Time: 15:33:08
(UTC+00:00)

CENTAUR R/B - Pass Details

Date: 18 September 2020
Orbit: 755 x 1433 km, 63.4° (Epoch: 02 October)

Event Time Altitude Azimuth Distance (km) Brightness Sun altitude
Rises 19:23:40 0° 317° (NW) 4,082 7.0 -19.8°
Reaches altitude 10° 19:26:17 10° 319° (NW) 3,202 6.2 -20.2°
Maximum altitude 19:34:15 79° 46° (NE) 1,381 3.1 -21.3°
Enters shadow 19:38:32 34° 129° (SE) 2,125 3.7 -21.9°
